CST,Max TemperatureF,Mean TemperatureF,Min TemperatureF,Max Dew PointF,MeanDew PointF,Min DewpointF,Max Humidity, Mean Humidity, Min Humidity, Max Sea Level PressureIn, Mean Sea Level PressureIn, Min Sea Level PressureIn, Max VisibilityMiles, Mean VisibilityMiles, Min VisibilityMiles, Max Wind SpeedMPH, Mean Wind SpeedMPH, Max Gust SpeedMPH,PrecipitationIn, CloudCover, Events, WindDirDegrees
2012-1-1,61,52,42,47,30,24,72,49,26,30.58,30.44,30.13,10,10,10,20,9,26,0.00,0,,343
2012-1-2,53,43,32,26,20,14,64,43,22,30.72,30.63,30.58,10,10,10,18,7,24,0.00,0,,346
2012-1-3,56,42,27,24,21,16,81,53,24,30.60,30.47,30.28,10,10,10,15,7,21,0.00,0,,168
2012-1-4,64,51,37,43,35,27,92,63,34,30.33,30.29,30.24,10,10,9,13,5,16,0.00,0,,210
2012-1-5,66,49,32,40,34,29,89,60,30,30.32,30.24,30.09,10,10,5,9,3,12,0.00,0,,193
2012-1-6,74,61,48,57,51,42,100,72,44,30.07,30.00,29.90,10,8,0,22,11,26,0.00,3,Fog,186
2012-1-7,66,56,45,56,49,40,93,68,43,30.03,29.98,29.93,10,10,9,16,7,20,0.00,2,,214
2012-1-8,67,56,44,50,47,43,96,74,52,30.12,30.07,30.03,10,8,3,15,4,21,0.13,5,Rain-Thunderstorm,33
2012-1-9,53,50,47,50,47,45,100,97,93,30.13,30.06,29.99,10,6,2,21,11,28,1.05,8,Rain-Thunderstorm,35
2012-1-10,49,47,44,48,45,42,100,96,92,29.95,29.87,29.80,10,5,0,18,7,25,0.18,8,Fog-Rain-Thunderstorm,262
2012-1-11,66,52,37,45,41,34,93,68,43,29.86,29.76,29.65,10,9,4,26,8,38,0.00,2,,237
2012-1-12,46,37,28,34,18,9,70,50,29,30.24,30.16,29.91,10,10,10,30,13,39,0.00,1,,309
2012-1-13,54,41,28,26,20,12,75,49,22,30.33,30.27,30.23,10,10,10,14,6,17,0.00,0,,206
2012-1-14,64,50,35,31,26,22,65,44,23,30.35,30.30,30.26,10,10,10,14,8,18,0.00,0,,217
2012-1-15,66,52,37,52,39,29,76,55,34,30.36,30.25,30.17,10,10,10,22,12,29,0.00,3,,181
2012-1-16,72,66,60,62,58,52,87,77,66,30.18,30.04,29.93,10,10,8,24,16,31,T,7,,190
2012-1-17,69,54,38,64,48,21,93,66,38,30.34,30.10,29.94,10,10,9,23,12,29,T,3,Rain,294
2012-1-18,56,43,30,32,25,21,76,53,30,30.34,30.22,30.05,10,10,10,14,4,17,0.00,0,,113
2012-1-19,72,55,38,52,44,31,93,66,38,30.03,29.91,29.84,10,10,8,23,10,29,0.00,0,,185
2012-1-20,78,66,53,63,59,53,100,74,48,29.87,29.82,29.71,10,7,1,24,13,30,0.00,5,,190
2012-1-21,67,54,41,63,44,36,87,75,63,30.06,29.95,29.85,10,8,5,18,7,22,0.00,7,,354
2012-1-22,77,65,52,63,53,37,93,65,37,29.94,29.80,29.65,10,8,4,29,15,38,0.00,6,,187
2012-1-23,65,53,40,37,33,28,76,51,26,30.15,30.06,29.97,10,10,10,20,4,28,0.00,0,,354
2012-1-24,68,56,43,52,42,31,83,57,30,30.12,30.02,29.95,10,9,2,21,11,29,0.49,5,Rain-Thunderstorm,97
2012-1-25,58,53,48,57,50,45,100,97,93,29.91,29.84,29.72,10,6,2,24,9,28,1.40,8,Rain-Thunderstorm,28
2012-1-26,59,49,39,46,43,35,100,75,50,30.05,29.91,29.85,10,8,2,21,7,28,T,6,Rain,287
2012-1-27,67,51,34,40,36,31,100,63,26,30.12,30.02,29.92,10,10,7,23,9,30,0.00,0,,191
2012-1-28,56,46,36,41,26,19,64,45,26,30.46,30.37,30.14,10,10,10,20,10,26,0.00,0,,4
2012-1-29,63,47,30,33,27,23,85,54,23,30.49,30.41,30.31,10,10,10,14,4,17,0.00,0,,183
2012-1-30,69,55,40,53,42,28,72,61,49,30.31,30.23,30.14,10,10,10,21,10,25,0.00,2,,178
2012-1-31,69,64,58,62,59,53,100,87,73,30.18,30.10,30.03,10,9,2,18,11,23,T,7,Rain,177